This is the latest recevied weather packets stored in our database for station/object SV8FES. If no packets are shown the sender has not sent any weather packets the latest 1 day(s).
| Time | Temp. | Humidity | Pressure | Rain* | Wind** | Luminosity | Snow |
|---|---|---|---|---|---|---|---|
| 1778062360 | 22.78° C | 49% | 1016.7 hPa | 0 mm | - | 765 W/m² | - |
| 1778062180 | 22.78° C | 45% | 1016.8 hPa | 0 mm | - | 547 W/m² | - |
| 1778062120 | 22.78° C | 45% | 1016.8 hPa | 0 mm | - | 585 W/m² | - |
| 1778062062 | 22.78° C | 45% | 1016.7 hPa | 0 mm | - | 684 W/m² | - |
| 1778061938 | 22.78° C | 45% | 1016.8 hPa | 0 mm | - | 835 W/m² | - |
| 1778061877 | 22.78° C | 45% | 1016.7 hPa | 0 mm | - | 881 W/m² | - |
| 1778061818 | 22.78° C | 46% | 1016.8 hPa | 0 mm | - | 902 W/m² | - |
| 1778061700 | 22.78° C | 45% | 1016.8 hPa | 0 mm | - | 865 W/m² | - |
| 1778061578 | 22.78° C | 45% | 1016.9 hPa | 0 mm | - | 649 W/m² | - |
| 1778061518 | 22.78° C | 46% | 1016.8 hPa | 0 mm | - | 649 W/m² | - |
| 1778061462 | 22.78° C | 46% | 1016.8 hPa | 0 mm | - | 506 W/m² | - |
| 1778061398 | 22.78° C | 48% | 1016.8 hPa | 0 mm | - | 443 W/m² | - |
| 1778061338 | 22.78° C | 48% | 1016.8 hPa | 0 mm | - | 434 W/m² | - |
| 1778061278 | 22.78° C | 49% | 1016.8 hPa | 0 mm | - | 508 W/m² | - |
| 1778061160 | 22.78° C | 49% | 1016.7 hPa | 0 mm | - | 759 W/m² | - |
| 1778060977 | 22.78° C | 50% | 1016.7 hPa | 0 mm | - | 905 W/m² | - |
| 1778060797 | 22.78° C | 47% | 1016.6 hPa | 0 mm | - | 911 W/m² | - |
| 1778060737 | 22.78° C | 45% | 1016.7 hPa | 0 mm | - | 905 W/m² | - |
| 1778060672 | 23.33° C | 44% | 1016.7 hPa | 0 mm | - | 907 W/m² | - |
| 1778060492 | 23.33° C | 44% | 1016.7 hPa | 0 mm | - | 905 W/m² | - |
| 1778060431 | 23.33° C | 45% | 1016.7 hPa | 0 mm | - | 907 W/m² | - |
| 1778060372 | 23.33° C | 45% | 1016.7 hPa | 0 mm | - | 912 W/m² | - |
| 1778060251 | 22.78° C | 43% | 1016.7 hPa | 0 mm | - | 907 W/m² | - |
| 1778060133 | 22.78° C | 44% | 1016.7 hPa | 0 mm | - | 904 W/m² | - |
| 1778060075 | 22.78° C | 44% | 1016.7 hPa | 0 mm | - | 912 W/m² | - |
* Rain latest hour (hover to see other rain measurements)
** Current wind speed in m/s (hover to see current wind gust speed)